Location: Azenweiler
(47.8027°N, 9.4096°E)
Time: 10:28:50
(UTC+00:00)

Meteor 2-3 Rocket - Pass Details

Date: 10 December 2025
Orbit: 842 x 883 km, 81.2° (Epoch: 21 January)

Event Time Altitude Azimuth Distance (km) Brightness Sun altitude
Rises 04:45:42 0° 195° (SSW) 3,454 6.8 -21.6°
Reaches altitude 10° 04:48:09 10° 198° (SSW) 2,516 6.1 -21.2°
Maximum altitude 04:53:52 73° 283° (WNW) 909 3.6 -20.2°
Drops below altitude 10° 04:59:34 10° 8° (N) 2,506 6.1 -19.3°
Sets 05:02:00 0° 11° (N) 3,441 6.8 -18.9°
